Theta_e
303 298 295 298 300 304 308 304 303 306 312 304 303 304 309 313 315 313 313 313 312 313 317 318 321 322 320 319 318 317 313 310 310 308 308 308 306 306 309 313 316 315 315 316
300 297 303 306 311 310 307 305 303 306 310 308 307 306 311 314 314 314 312 312 313 314 315 319 319 319 318 319 318 316 312 310 310 308 308 306 306 306 306 309 313 314 314 314
299 303 309 309 305 304 301 300 300 301 306 308 305 304 308 313 315 317 316 316 316 315 313 314 314 313 315 312 313 310 310 310 313 309 308 307 307 306 306 307 307 311 314 313
305 308 308 305 305 304 298 305 304 304 300 295 305 295 303 306 309 314 314 314 313 315 314 309 309 312 314 310 311 312 311 309 309 308 305 303 303 302 304 306 309 310 313 314
305 307 307 305 305 307 303 307 303 302 297 298 300 297 302 305 306 310 311 313 311 311 310 309 311 315 312 313 310 308 306 305 307 307 306 308 305 303 305 305 305 308 309 311
308 313 310 308 311 309 309 303 300 296 294 291 297 296 296 301 306 308 308 309 309 309 312 314 316 308 307 307 305 304 304 306 307 308 308 302 301 300 300 300 301 302 303 305
306 308 311 312 307 306 302 295 287 286 287 289 300 296 295 307 311 307 305 307 309 310 310 305 304 302 302 303 304 306 304 304 306 305 303 302 301 300 299 299 299 299 300 302
298 298 308 313 307 301 298 295 289 283 283 291 299 294 297 308 311 310 309 308 308 305 301 300 300 301 300 302 303 303 303 302 302 302 302 301 300 299 300 299 299 299 299 302
299 300 311 312 307 304 299 295 297 291 293 291 295 301 307 310 309 308 305 307 301 299 299 300 300 300 300 301 301 301 301 302 304 302 302 301 301 300 300 300 301 301 304 309
305 297 307 309 310 307 301 303 293 292 286 285 291 292 296 303 305 304 304 303 299 298 298 298 298 299 299 298 299 301 304 302 304 301 301 305 302 305 305 302 303 304 306 308
304 299 301 306 301 297 298 296 296 295 293 287 287 292 302 302 304 303 302 302 297 297 297 297 298 298 299 299 301 300 304 303 301 301 301 302 301 302 304 302 302 305 306 307
306 299 296 300 307 305 301 297 295 289 289 291 290 293 304 305 303 300 300 298 297 297 297 297 297 298 299 299 300 304 302 302 302 304 304 302 301 301 300 301 302 302 302 303
304 297 289 294 299 303 298 300 297 294 293 290 287 290 304 304 301 301 297 297 298 298 296 296 297 297 299 299 300 302 302 302 306 304 304 301 301 301 300 301 302 302 302 302
310 300 295 291 296 299 297 299 298 294 290 292 292 295 298 299 299 296 296 297 297 297 297 296 295 296 298 299 300 301 302 303 304 305 303 301 301 305 305 304 302 301 302 302
306 298 300 300 302 301 300 299 299 296 296 292 294 294 296 298 297 297 297 297 298 297 297 296 295 296 297 298 300 302 301 303 303 306 304 302 302 303 304 304 304 305 302 302
304 297 300 300 302 301 299 299 298 298 297 296 296 294 299 300 299 298 298 298 297 297 298 298 298 298 298 299 301 303 303 302 303 306 307 304 303 304 304 303 304 303 302 305
301 298 296 294 303 301 293 300 300 299 300 297 291 294 300 297 297 296 296 298 299 298 298 298 299 299 299 300 302 302 303 303 304 304 306 305 304 304 307 306 306 306 306 304
302 300 299 293 297 288 300 306 303 300 301 300 301 300 298 297 297 297 297 297 298 299 300 299 299 298 300 300 303 303 304 303 303 304 304 305 305 304 305 306 303 303 306 302
306 300 294 291 292 296 301 305 301 298 296 302 300 299 299 299 298 296 299 299 299 299 299 299 299 299 299 301 303 303 303 302 303 304 304 305 305 305 307 307 307 303 301 302
307 304 299 296 291 288 300 306 307 304 292 302 301 299 298 298 289 292 299 304 300 300 301 300 300 300 300 301 304 302 302 301 303 307 307 307 307 305 307 308 308 308 305 303
299 299 297 295 293 298 305 307 307 289 290 301 301 299 298 295 295 297 301 301 301 301 301 301 299 300 300 302 305 301 303 303 305 307 309 308 307 305 305 303 307 307 306 307
298 297 296 296 292 289 308 305 296 299 300 300 300 299 298 299 299 299 300 301 302 300 300 301 300 300 302 303 303 305 301 304 309 308 307 307 306 307 306 296 297 300 301 302
298 301 296 297 296 303 304 303 303 302 300 299 299 300 301 300 299 299 299 300 301 300 301 302 301 301 302 304 303 302 304 305 307 305 304 305 305 304 302 294 293 293 294 295
305 306 299 300 306 306 304 304 304 302 300 302 303 302 302 299 299 300 301 300 300 301 302 302 304 302 302 304 306 304 306 309 306 304 305 305 304 306 300 299 292 289 288 288
304 304 300 299 304 304 304 305 305 303 303 303 304 304 302 301 301 302 301 301 301 301 303 302 303 302 303 305 305 306 308 308 305 305 305 304 305 306 305 299 295 291 288 288
305 304 299 296 303 302 303 305 306 303 302 303 304 303 303 302 300 302 301 301 302 304 303 303 303 303 304 305 306 307 308 307 308 305 304 303 305 306 306 297 293 293 292 292
Wind_Speed
4 3 5 12 8 5 5 4 6 7 8 21 18 17 11 7 9 7 7 7 6 4 2 4 4 5 1 1 2 2 4 5 5 3 3 3 4 3 3 4 6 6 6 6
5 7 12 4 9 15 6 4 6 16 24 24 15 11 6 8 7 6 7 6 7 3 2 3 2 2 2 3 3 5 4 4 4 2 2 1 2 3 2 4 5 5 6 5
9 14 3 8 6 7 3 3 1 16 17 20 25 9 5 5 5 5 7 4 5 4 4 2 1 4 3 3 5 5 4 5 5 7 4 4 4 3 4 4 4 4 5 4
5 4 11 8 6 6 8 5 7 16 9 7 9 6 3 0 2 10 8 6 5 5 2 2 4 2 4 4 6 5 7 7 6 6 5 5 2 3 3 3 4 5 7 7
2 5 8 9 3 5 2 2 5 4 8 6 7 7 3 4 3 6 7 6 6 6 7 2 3 6 7 5 5 5 6 6 5 5 4 3 4 3 3 4 7 7 6 5
2 2 4 2 2 7 1 9 10 6 5 6 8 5 3 2 6 6 5 7 7 6 6 3 3 6 6 7 6 3 3 4 5 6 5 6 6 6 5 5 5 5 4 5
5 6 5 5 7 8 12 9 5 7 7 2 4 8 4 4 6 7 9 7 4 4 3 7 7 7 7 7 6 5 7 7 7 7 6 6 6 6 5 5 4 5 4 4
5 9 6 6 1 2 5 7 6 2 3 4 6 3 2 1 8 7 6 6 4 7 8 6 5 6 5 5 6 6 7 7 7 5 6 6 6 4 3 4 4 4 3 5
4 4 4 5 6 5 4 4 2 4 5 6 1 1 3 7 7 8 8 6 7 7 6 7 7 4 3 4 5 5 6 4 4 6 6 6 5 6 5 6 4 3 4 5
5 1 4 5 8 9 7 3 6 5 3 3 2 1 1 8 9 7 8 7 7 5 6 5 4 4 3 2 3 6 5 3 5 6 5 5 6 6 5 5 6 6 6 6
3 4 7 7 4 3 7 5 6 5 4 5 4 2 5 6 8 10 7 6 9 7 6 4 3 3 4 4 5 5 5 5 5 5 5 6 6 7 6 5 6 5 5 6
4 4 2 1 4 4 4 4 5 6 1 3 4 1 4 11 9 8 8 9 7 7 6 5 2 3 4 5 6 5 5 6 5 4 5 6 6 7 6 6 6 6 6 6
3 4 3 8 8 8 7 4 5 6 4 2 5 3 5 10 8 5 11 8 7 6 6 4 3 4 3 4 5 5 5 5 5 4 4 6 6 5 6 6 6 6 6 6
7 3 6 6 4 3 9 10 6 8 5 0 1 8 4 5 7 8 8 7 6 6 6 3 3 3 3 4 4 5 5 4 5 5 6 5 6 5 5 4 5 6 6 6
5 3 4 8 18 19 15 13 12 9 5 6 3 5 8 8 8 8 9 6 6 6 4 4 3 2 3 4 5 5 4 4 4 5 5 6 6 5 5 5 5 5 5 4
3 1 2 9 16 20 17 16 13 13 9 7 6 3 5 5 9 10 10 6 6 6 4 4 3 3 3 3 4 5 6 5 5 6 6 6 6 6 5 5 3 4 4 4
3 3 3 4 2 8 11 9 11 10 9 2 5 2 6 6 8 6 6 5 6 5 4 4 3 1 0 2 3 5 5 3 6 6 6 6 6 6 5 4 4 4 5 5
3 3 2 4 4 6 4 5 13 13 6 7 8 6 7 7 5 6 4 6 5 5 4 4 2 1 2 2 4 4 5 4 5 5 6 5 5 6 5 5 4 4 4 5
13 3 4 5 4 3 10 2 4 2 5 4 10 9 10 9 6 3 4 4 5 5 4 3 3 2 0 2 5 4 5 5 5 5 5 5 5 6 5 6 6 3 3 3
4 5 7 2 6 3 4 9 7 4 4 5 6 8 10 6 2 4 5 4 5 5 5 5 3 1 1 4 4 3 3 4 5 5 5 5 4 5 6 6 5 4 3 3
5 5 7 3 4 3 6 9 3 7 5 0 4 5 5 4 5 6 6 5 5 5 5 3 3 2 2 3 4 2 4 4 5 6 5 5 6 6 6 5 5 4 3 3
5 3 4 4 5 2 4 6 7 5 1 4 4 4 6 6 6 5 6 6 5 3 3 4 2 2 3 2 2 2 4 4 4 6 6 7 7 5 3 5 5 5 5 4
5 0 3 4 5 3 4 6 2 5 4 1 5 5 6 6 5 6 5 5 4 3 4 2 2 3 1 2 1 2 3 4 4 4 5 6 6 4 3 4 5 3 4 3
7 5 4 5 4 4 5 2 5 5 5 5 6 7 6 6 5 6 5 4 3 2 3 2 2 1 1 0 0 2 3 3 3 5 6 6 5 5 2 2 2 3 2 2
3 4 4 3 2 4 0 4 5 6 6 7 6 6 7 7 5 5 4 5 5 3 3 2 3 1 3 3 2 3 4 2 4 4 5 6 4 4 3 3 2 1 3 3
5 3 3 4 6 4 5 4 8 7 6 7 8 5 4 6 6 5 6 5 4 3 2 1 2 1 4 4 4 4 5 3 3 4 4 5 5 3 4 3 3 6 8 8
Wind_Direction
325 78 236 256 216 161 149 113 208 75 99 69 93 115 120 150 180 140 126 151 162 183 199 259 271 289 221 124 143 36 36 355 24 357 344 339 331 319 322 356 342 0 341 320
9 241 240 259 92 113 115 95 94 58 86 97 117 118 138 172 158 157 152 160 164 150 242 273 321 102 30 158 74 54 51 22 360 341 315 315 296 306 319 337 334 333 337 325
202 244 229 102 96 107 125 134 54 128 89 123 126 89 100 74 107 141 157 162 135 97 75 94 25 10 67 56 106 81 64 26 12 9 357 345 343 347 350 343 331 314 331 8
103 33 78 61 39 81 42 324 38 127 163 185 207 119 96 131 39 117 88 93 120 122 150 280 332 344 46 67 45 51 29 16 21 13 24 26 349 323 295 302 310 334 347 358
310 44 54 65 66 94 166 343 32 58 71 114 37 89 96 198 93 116 123 164 182 152 185 265 301 25 33 99 70 47 42 28 8 21 10 355 3 316 310 331 342 343 349 338
79 227 85 181 90 47 115 39 35 45 85 55 320 115 310 243 155 156 179 210 165 202 210 235 76 80 53 42 40 53 19 356 2 31 13 19 17 350 354 340 338 333 323 315
342 333 325 57 25 21 56 50 2 4 28 83 295 54 215 227 188 170 173 183 173 160 71 67 68 51 42 32 22 17 12 356 354 27 10 8 359 351 345 333 323 332 323 319
59 0 14 0 33 121 77 125 142 260 187 175 15 81 215 155 106 138 142 126 136 63 94 98 80 87 61 36 25 16 355 0 15 21 0 355 351 344 329 323 319 321 314 313
60 340 359 18 29 68 335 27 173 126 64 85 120 89 120 115 130 121 119 125 95 108 100 78 68 88 72 35 358 333 5 35 359 359 351 345 346 345 335 333 319 307 313 326
346 342 14 349 48 23 101 237 27 8 87 95 70 289 190 156 171 139 146 135 142 116 107 90 86 65 27 16 334 358 15 36 17 6 354 357 342 337 341 339 345 356 338 336
42 84 314 42 13 102 17 24 57 107 80 141 150 259 229 177 161 158 163 127 141 133 121 109 77 20 9 357 19 1 15 360 16 13 357 1 345 344 345 350 347 353 338 350
14 125 77 188 301 112 94 107 104 114 36 62 113 359 137 133 154 149 144 124 127 133 126 128 107 60 31 14 8 10 16 21 5 360 360 2 348 354 355 356 349 356 3 358
332 8 40 345 354 358 72 21 108 99 90 351 113 179 121 129 161 165 130 132 132 120 121 102 70 43 354 25 2 5 5 355 339 359 357 355 351 350 358 359 358 4 9 4
90 77 150 174 224 143 62 46 42 101 76 32 77 129 136 178 144 117 118 121 120 120 141 134 64 35 21 15 351 4 353 359 352 355 356 352 346 340 345 7 19 17 14 15
91 64 46 58 82 72 63 73 63 76 156 98 163 131 196 185 144 145 130 133 134 136 122 116 123 10 2 14 351 348 342 16 352 334 342 343 335 337 346 6 10 5 26 27
30 311 37 63 78 69 65 61 72 77 69 83 115 74 105 89 89 114 128 141 114 115 128 113 150 35 14 6 355 348 338 357 2 349 347 351 358 338 358 8 22 2 354 25
86 109 71 128 106 56 43 64 76 64 39 85 64 122 118 78 96 115 136 125 118 130 150 139 152 84 24 351 336 339 339 10 11 4 354 5 2 7 6 21 17 6 348 1
10 74 86 120 48 59 299 49 97 84 49 53 90 100 117 119 115 121 145 134 137 136 144 149 163 99 256 338 335 341 2 6 6 359 354 6 5 351 340 344 350 345 345 354
0 96 61 87 56 359 267 331 305 171 19 36 112 127 132 126 95 28 147 154 148 164 190 165 178 191 41 332 320 360 3 350 358 340 348 348 1 344 343 359 349 5 35 15
298 64 99 124 112 165 265 307 323 146 55 339 106 146 168 178 79 236 189 158 136 166 160 169 198 131 17 314 328 19 331 357 343 340 334 343 351 343 337 336 352 346 47 59
343 343 69 12 95 59 309 310 7 78 231 232 124 151 170 159 197 183 180 148 171 184 174 194 181 201 262 293 338 3 6 359 316 318 4 354 347 350 352 352 359 359 22 72
26 14 26 56 75 34 310 353 81 197 45 141 122 148 117 131 149 170 158 164 169 144 172 151 148 258 231 297 351 52 10 308 340 356 345 339 342 334 4 16 354 23 23 51
26 103 128 126 189 210 10 129 124 150 132 115 121 161 148 152 169 157 145 168 182 161 191 235 222 233 272 292 262 61 286 324 336 355 345 333 334 6 51 29 26 18 32 48
350 29 75 66 26 120 136 137 143 133 126 126 134 148 147 152 168 144 158 185 195 226 209 237 324 75 217 219 176 242 294 327 351 349 340 332 326 325 336 91 63 68 18 28
264 21 25 36 52 76 60 177 152 127 135 120 150 149 154 141 161 168 183 194 209 226 192 224 177 140 214 205 234 264 278 337 335 334 338 328 306 314 267 252 197 185 224 194
341 342 107 217 241 163 238 196 152 139 163 153 140 145 178 157 172 158 186 194 193 195 201 168 233 304 227 220 232 258 276 293 313 333 320 303 306 298 287 212 272 242 249 217